{"data":{"norad_id":58562,"intl_designator":"2023-185M","name":"ALISIO-1","alt_names":[],"object_type":"PAYLOAD","status":"ACTIVE","operator":null,"country":"SPN","launch_date":"2023-12-01","launch_site_code":"AFWTR","launch_vehicle":null,"mission":null,"orbit_class":"UNKNOWN","rcs_meters":null,"size_class":null,"mass_kg":null,"dimensions":null,"purposes":[],"wikipedia_slug":null,"has_3d_model":false,"image_url":null,"decayed_at":null,"tle_current":{"epoch":"2026-09-21T22:19:29.006112Z","epoch_age_seconds":124087,"freshness":"FRESH","line1":"1 58562U 23185M   26264.93019683  .00001994  00000+0  10253-3 0  9990","line2":"2 58562  97.5294 337.7521 0005762 354.9494   5.1681 15.17621859153229","mean_motion":15.17621859,"eccentricity":0.0005762,"inclination_deg":97.5294,"raan_deg":337.7521,"arg_perigee_deg":354.9494,"mean_anomaly_deg":5.1681,"bstar":0.00010253,"rev_number":15322,"period_min":94.885296456448,"perigee_km":509.05959149697,"apogee_km":517.00097267285,"semimajor_km":6891.1672820849,"source":"CELESTRAK","updated_at":"2026-09-22T09:00:26.734707Z"}}}